Dewpoint
-18 -20 -24 -25 -26 -26 -26 -26 -26 -26 -26 -24 -23 -17 -20 -26 -27 -14 -3 -4 -5 -3 -15 -7 4 5 4 4 1 1 3 3 2 -2 -3 -7 -8 -9 -9 -7 -6 -3 -2 5 10
-6 -17 -23 -24 -24 -24 -24 -24 -25 -25 -24 -22 -9 1 -1 -6 -9 -4 -6 -4 1 1 2 1 2 4 3 1 1 2 3 0 -4 -5 -5 -6 -7 -8 -8 -8 -6 -2 1 9 10
-10 -17 -20 -22 -22 -22 -23 -23 -24 -24 -23 -19 1 1 2 1 -0 -4 3 4 4 5 5 3 2 2 2 -2 -1 -0 2 -4 -4 -5 -5 -5 -6 -7 -7 -7 -7 -4 5 9 10
-6 -7 -15 -21 -21 -21 -22 -22 -23 -23 -22 -10 0 -5 2 2 -5 2 5 4 3 1 2 3 2 2 1 -1 -4 -2 -4 -4 -4 -4 -4 -5 -6 -6 -6 -5 -6 -5 7 9 10
-1 -3 -8 -20 -20 -21 -21 -23 -23 -22 -21 -19 -14 -2 2 0 -1 -4 -3 -0 -1 -2 2 3 2 1 1 -0 -4 -4 -5 -7 -4 -5 -5 -6 -5 -5 -6 -5 -6 1 8 9 10
-1 -4 -12 -18 -20 -20 -21 -22 -22 -21 -19 -16 -10 0 1 -1 -3 -3 -2 -2 -2 -2 -1 4 4 0 -1 -1 -4 -5 -6 -6 -6 -5 -5 -5 -5 -5 -6 -3 -1 5 7 9 9
-4 -7 -12 -17 -19 -20 -22 -21 -23 -20 -16 -13 -8 -0 1 -1 -4 -2 -1 -1 -1 -1 -2 0 2 4 -1 -4 -4 -6 -5 -6 -6 -6 -5 -5 -4 -3 -4 -3 2 4 6 8 9
-9 -14 -16 -16 -18 -20 -20 -21 -22 -17 -13 -10 -7 -0 1 -2 -1 -1 -2 -1 -1 -1 -1 -1 1 4 4 -3 -5 -5 -5 -3 -6 -7 -6 -4 -3 -5 -4 -3 -1 3 6 7 8
-16 -17 -16 -17 -19 -19 -18 -20 -16 -13 -11 -8 -1 1 -1 -3 -3 -3 -2 -2 -1 -1 -2 -0 0 2 2 1 -2 -4 -3 -4 -5 -7 -6 -3 -4 -6 -4 -4 -3 -0 5 7 7
-17 -16 -16 -17 -19 -17 -17 -12 -12 -10 -9 -5 -0 -1 -2 -5 -4 -3 -2 -2 -3 -3 -1 -0 0 3 3 3 3 -3 -4 -5 -4 -3 -4 -2 -4 -3 -3 -4 -4 -3 1 6 8
-17 -16 -18 -17 -19 -16 -14 -6 -5 -6 -3 -3 -3 -3 -4 -5 -4 -2 -1 -2 -1 -3 -1 -1 1 3 4 0 -1 -5 -6 -5 -6 -4 -2 -3 -3 -4 -3 -4 -4 -4 -3 4 6
-16 -16 -16 -18 -19 -14 -4 -3 -1 -1 -0 -3 -4 -4 -3 -3 -3 -3 -0 -0 -0 -2 -4 3 2 -4 -3 -1 1 2 1 -5 -5 -2 -3 -2 -3 -4 -3 -2 -1 -2 -3 3 3
-16 -14 -16 -18 -16 -5 -2 -3 -1 -0 -0 -4 -6 -6 -4 -4 -4 -2 -1 0 -0 -1 -1 2 -2 -5 -2 2 5 4 2 -4 3 -1 -2 -1 -0 1 -3 -2 -1 1 -0 0 2
-13 -13 -16 -19 -8 -8 -5 -9 -4 -1 -0 -9 -8 -5 -6 -5 -2 -1 1 2 2 1 -1 0 0 2 4 3 2 5 2 -1 -0 -0 2 -3 2 -0 -1 2 -1 -1 -0 1 0
-13 -13 -16 -18 -16 -4 -10 -8 -3 -0 1 -9 -8 -6 -7 -5 -5 0 2 1 2 1 0 -1 -1 3 3 -1 -0 3 0 1 -0 -1 1 0 3 -2 -2 1 -1 -2 -1 0 -0
-13 -14 -17 -15 -11 -7 -10 -6 -1 1 -1 -8 -8 -6 -6 -7 -5 -1 2 1 1 3 -1 0 -3 -1 -1 -2 -2 1 1 3 3 1 3 2 1 -5 -0 0 -2 -2 -1 -0 -1
-14 -16 -19 -19 -12 -15 -9 -2 1 -1 -9 -5 -5 -5 -5 -5 -3 -4 2 3 3 4 3 -1 -1 -1 -0 -1 -1 -0 2 5 5 5 2 -1 -1 1 -2 -2 0 2 -1 -2 -3
-14 -17 -19 -17 -16 -14 -4 -2 -3 -6 -3 -6 -5 -5 -5 -3 -3 -1 -0 1 3 3 2 0 2 -1 -1 1 -0 0 0 1 -1 1 0 -1 2 -1 -4 -5 -3 -1 -2 -3 -3
-14 -17 -10 -17 -17 -12 -3 -2 -4 -3 -4 -2 -4 -5 -5 -5 -3 -2 0 0 1 2 4 4 2 -2 -1 -0 -1 0 4 -3 2 -0 1 -0 -2 -4 -6 -5 -4 -1 -2 -4 -3
-15 -15 -12 -16 -17 -7 -2 -5 -7 -7 -4 -3 -0 -4 -3 -3 -1 0 1 -0 -0 1 1 1 2 -2 1 1 1 -0 -3 1 2 1 -1 -2 -3 -2 -5 -4 -4 -2 -3 -5 -3
-11 -10 -13 -15 -13 -7 -2 -5 -6 -7 -5 -1 -1 -1 -3 -1 0 2 1 0 -0 1 1 0 3 -0 -1 1 3 1 2 1 -1 0 1 -4 -1 -2 -0 -1 -1 -2 -3 -5 -6
-9 -6 -13 -14 -4 -4 -5 -6 -6 -6 -6 -3 -3 -2 -3 -3 0 -1 0 1 -0 0 2 1 2 2 1 -4 -3 -2 1 1 1 2 1 1 1 -5 -4 -3 -1 -2 -4 -7 -10
-6 -7 -10 -6 -3 -4 -8 -9 -8 -7 -6 -4 -3 -4 -5 -3 -1 -3 -4 -1 -1 -2 1 1 1 2 2 -0 -4 -0 -2 -2 -0 1 3 1 -0 -7 -6 -4 -2 -3 -7 -11 -12
-4 -1 -3 -4 -4 -5 -5 -7 -6 -7 -6 -6 -3 -6 -4 -4 -5 -2 -4 -5 -4 -4 -3 0 -1 -0 2 1 -0 2 -1 -3 -1 1 1 0 -4 -4 -4 -4 -4 -5 -9 -10 -7
-4 -3 -5 -2 -4 -6 -5 -5 -6 -5 -7 -6 -5 -5 -2 -2 -3 -4 -4 -5 -5 -5 -4 -2 1 -1 -3 -3 -2 -3 -0 -1 0 -2 2 -0 -2 -4 -3 -2 -2 -5 -9 -8 -10
-3 -3 -3 -4 -6 -5 -5 -6 -6 -6 -5 -5 -4 -5 -4 -1 -2 -2 -2 -3 -3 -5 -2 -3 0 -1 -1 -4 -3 -1 -3 -2 -2 -3 -3 -2 -1 -5 -6 -6 -6 -7 -8 -9 -9
-6 -6 -3 -4 -4 -3 -6 -5 -6 -7 -6 -5 -3 -3 -4 -2 -3 -2 -2 -2 -3 -4 -3 -2 -2 -1 2 -4 -3 0 -1 -2 -2 -3 -3 -2 -3 -5 -5 -6 -4 -4 -7 -7 -6
Wind_Speed
16 16 17 17 17 17 19 20 22 23 23 24 24 25 26 26 25 24 24 17 18 21 19 15 17 20 18 21 20 14 11 16 21 20 15 7 9 8 7 8 10 9 2 8 27
20 18 17 17 18 19 19 20 23 24 25 26 26 25 24 25 25 30 25 22 12 7 14 16 21 25 26 25 19 15 15 21 15 14 11 8 11 11 7 15 10 10 9 22 34
18 18 18 19 20 21 22 24 24 24 27 28 25 24 21 20 21 3 9 4 5 7 11 16 20 25 27 22 30 24 23 16 21 14 10 13 10 8 11 13 16 20 23 26 42
19 20 20 22 23 24 25 27 26 27 29 29 27 25 18 9 6 4 13 10 9 12 13 20 25 31 24 26 28 21 24 29 21 13 10 13 14 9 14 1 6 15 24 30 41
20 21 22 23 25 27 28 27 28 29 30 30 25 17 11 11 20 18 20 18 17 16 12 17 25 32 28 25 26 25 24 22 26 10 12 9 10 13 11 1 4 15 22 29 38
21 22 24 25 27 29 30 28 30 31 30 25 14 10 8 16 8 10 12 15 17 11 12 14 18 25 24 26 21 21 24 23 18 24 13 11 10 4 9 6 12 18 21 25 32
21 23 26 28 29 31 30 30 31 29 20 16 8 8 15 19 13 13 15 17 12 10 14 16 13 16 22 13 31 22 15 20 17 18 11 14 14 10 8 11 14 17 19 21 26
22 24 28 30 31 32 29 32 29 24 12 16 14 8 10 9 11 12 12 13 12 10 12 17 17 21 20 19 9 20 21 15 20 22 17 14 18 17 12 13 14 17 19 19 23
23 25 28 30 31 30 31 33 21 15 18 7 3 4 10 8 10 16 14 15 17 18 15 13 16 17 14 16 14 16 16 22 19 21 15 16 13 14 21 13 15 16 19 20 20
23 26 29 31 30 26 34 29 19 5 18 6 3 6 6 15 20 20 12 15 18 20 13 15 13 7 13 15 17 18 20 18 19 14 18 16 20 10 11 15 16 16 17 19 20
25 26 29 29 27 25 31 19 15 3 23 10 20 15 19 18 18 10 11 10 12 15 14 20 10 15 16 24 21 22 19 22 14 13 17 19 19 13 12 14 17 19 18 18 19
25 28 30 27 23 23 20 13 9 13 15 19 14 16 16 13 17 10 10 7 5 8 14 3 15 20 18 17 19 21 16 20 8 14 11 15 15 16 15 13 14 16 17 22 17
25 28 29 25 18 17 13 17 17 10 7 9 6 10 10 13 15 14 14 9 9 13 12 17 6 16 14 17 8 11 17 15 10 10 10 8 13 14 14 9 9 9 14 20 20
25 27 28 23 10 20 9 24 19 3 4 6 4 2 14 20 4 11 6 5 3 10 11 11 4 7 12 18 14 7 11 9 14 14 10 13 6 19 16 11 13 14 16 18 20
25 27 21 21 23 13 23 23 9 2 6 10 8 9 22 10 17 2 7 6 5 9 5 1 6 12 13 13 12 4 5 9 14 10 8 10 5 7 20 13 14 14 16 17 22
23 24 17 20 18 16 24 16 3 4 4 9 12 17 21 16 14 6 3 7 4 4 8 3 4 3 1 9 10 10 7 2 6 7 5 9 9 11 11 13 16 15 17 16 18
22 20 15 23 20 22 21 3 4 4 16 12 17 20 17 19 9 14 10 3 2 4 7 5 3 5 3 8 9 11 13 3 3 4 5 6 10 3 7 5 6 13 18 17 19
21 12 16 22 20 21 10 5 4 11 8 16 16 20 9 17 11 15 13 14 6 6 4 6 4 1 6 2 5 15 12 3 7 7 8 5 7 4 7 8 8 11 19 14 16
19 4 11 19 17 14 7 6 5 8 12 12 20 10 10 14 10 11 13 12 10 10 7 3 5 6 4 2 6 7 5 2 2 3 5 8 6 6 6 7 9 9 12 15 14
15 2 12 19 13 9 4 3 5 9 11 10 6 9 13 15 13 14 14 12 17 10 6 4 2 2 3 2 5 3 6 3 2 2 4 4 4 6 6 8 9 10 11 15 12
7 2 13 16 8 8 3 4 5 9 11 5 7 7 12 11 13 10 12 5 16 9 7 6 3 2 3 1 3 3 3 2 2 2 2 4 4 3 2 1 6 9 11 16 16
4 2 13 12 5 3 4 5 8 9 12 4 5 8 10 15 6 10 10 7 17 14 7 6 4 2 4 3 2 6 4 2 2 2 1 3 4 3 1 3 7 11 14 15 13
4 3 6 9 3 4 4 4 5 9 8 7 4 10 12 8 6 9 13 5 13 14 8 6 2 2 3 3 3 2 2 2 3 2 1 3 4 6 7 6 8 12 15 13 12
3 2 4 9 3 3 4 6 10 8 4 8 5 10 14 8 9 7 13 8 11 16 13 6 2 4 5 3 3 2 3 5 1 4 4 4 10 9 8 8 8 10 13 11 10
2 1 2 2 4 3 1 3 9 9 5 8 4 12 9 4 8 8 11 13 11 15 10 5 4 3 4 4 3 1 3 3 3 3 2 3 10 7 6 4 6 9 9 10 7
0 1 0 1 2 2 1 3 8 9 3 5 6 13 10 5 5 10 10 7 5 11 7 7 2 3 1 4 5 2 2 4 3 4 6 5 6 5 6 6 3 5 8 10 9
2 2 2 1 1 2 2 4 7 10 3 8 9 11 10 6 14 17 15 8 5 6 6 7 5 3 3 3 3 2 3 1 3 2 1 4 6 4 5 4 3 2 5 8 9
Wind_Direction
6 8 7 2 356 353 348 343 337 332 325 321 318 317 314 311 307 304 283 265 259 239 242 225 222 214 208 216 218 229 234 239 240 238 251 199 207 211 231 177 178 171 106 137 174
3 3 1 357 353 348 342 338 335 330 325 319 320 318 316 313 312 298 277 267 257 260 235 224 218 206 209 209 206 211 229 234 247 246 257 274 223 196 209 200 183 165 137 158 168
357 357 356 350 347 346 343 337 333 328 322 320 318 315 314 316 314 260 156 214 249 255 241 236 230 212 218 213 208 215 235 239 242 282 269 277 240 223 227 206 207 188 158 167 167
351 351 349 349 345 343 339 337 335 330 324 319 316 315 307 306 290 216 221 267 275 284 272 241 230 225 217 224 219 229 231 234 254 245 250 252 248 219 229 327 285 192 171 162 171
348 346 346 346 342 341 338 336 335 329 322 318 318 323 315 266 256 270 275 277 290 302 279 240 225 227 226 224 219 229 238 230 230 225 231 245 236 238 226 101 147 153 167 166 172
343 343 346 345 342 339 336 337 336 326 321 316 318 328 290 271 266 285 288 301 299 286 257 243 240 234 246 229 229 229 236 249 231 223 226 214 212 232 197 153 148 160 170 172 173
342 345 344 345 340 338 336 337 336 322 321 314 299 328 279 263 295 299 292 291 275 280 258 240 262 249 236 237 242 240 235 230 208 213 208 218 223 218 160 166 156 163 167 173 176
344 346 345 343 339 336 335 338 335 318 329 313 292 295 262 279 293 308 315 292 268 267 282 245 242 247 267 220 241 219 235 230 219 220 215 204 227 210 170 178 170 164 166 170 177
345 346 344 343 339 336 338 339 339 317 350 322 354 260 269 298 312 308 302 289 269 267 282 239 220 221 229 236 223 197 211 219 217 205 208 207 228 208 170 186 180 171 166 169 174
345 345 343 342 340 340 341 349 350 327 343 327 304 281 246 323 317 310 315 296 271 258 259 210 211 195 225 217 214 203 217 209 223 183 211 207 234 155 174 189 215 185 171 169 171
344 343 342 342 341 344 351 355 7 276 338 287 289 280 293 312 320 320 320 310 278 227 234 206 210 213 212 210 224 223 216 228 195 161 195 212 221 203 189 186 194 203 185 166 163
343 342 341 343 343 347 3 23 7 311 305 306 275 272 285 308 312 331 339 293 277 259 237 178 232 231 224 214 225 247 246 211 208 164 206 217 213 193 176 184 176 181 196 163 162
343 342 341 345 347 351 355 356 334 318 278 294 273 291 309 313 305 307 323 312 288 270 246 235 233 239 220 191 174 216 213 195 172 168 196 231 227 222 215 202 173 172 171 176 182
342 342 343 349 357 336 341 333 335 344 297 38 1 34 329 326 267 313 323 311 261 277 266 242 132 254 193 170 180 198 240 248 172 177 197 206 230 207 201 200 194 169 165 166 175
342 342 347 351 343 345 330 335 342 50 326 1 348 328 333 325 320 308 331 311 264 295 269 307 199 174 206 162 168 133 260 179 183 195 156 202 216 259 192 198 197 173 161 160 174
341 342 347 351 348 319 332 336 355 253 340 343 339 337 337 345 346 307 301 306 289 297 248 265 108 8 312 149 169 145 161 328 278 225 222 204 208 201 184 203 188 164 158 158 164
342 342 354 350 338 337 337 345 283 4 352 347 331 332 323 349 337 349 341 305 289 239 180 138 123 79 17 140 170 189 158 145 180 195 228 258 203 150 114 85 12 140 157 154 162
345 352 0 357 344 338 355 288 355 3 347 323 317 311 350 3 336 346 353 8 21 337 157 190 157 95 22 282 186 198 187 212 209 194 172 158 220 146 98 86 80 104 135 148 157
346 347 3 355 347 349 325 40 360 4 335 314 314 342 350 1 342 347 12 18 10 359 346 320 85 72 359 358 328 167 198 21 134 257 176 166 145 139 133 136 128 132 145 153 158
350 349 348 353 353 7 46 55 1 4 329 312 327 352 344 348 342 354 9 31 351 357 337 0 113 70 130 80 27 308 127 195 234 183 213 166 170 83 161 162 149 153 154 159 156
14 303 345 352 27 41 46 8 330 343 356 313 334 316 345 349 329 354 16 25 359 323 323 334 294 90 158 22 82 159 165 26 306 328 315 154 106 23 42 77 165 151 161 165 160
26 314 355 1 39 360 27 349 330 331 349 331 305 326 352 330 316 0 358 360 348 340 359 1 330 107 75 60 71 301 134 196 270 141 61 289 89 3 23 101 125 145 161 163 163
348 329 352 31 40 20 354 358 345 339 339 353 327 348 327 322 323 359 353 21 354 1 2 343 40 163 173 163 146 245 169 114 121 228 33 307 77 65 102 113 113 134 157 164 170
334 318 23 47 60 356 5 1 358 345 326 344 302 343 340 326 337 306 347 346 348 8 2 336 47 17 7 17 347 156 169 198 239 244 152 70 119 88 93 115 129 147 171 176 180
24 58 21 9 43 49 18 338 356 360 343 352 338 357 347 298 312 348 347 337 336 5 358 7 24 16 39 23 42 104 174 173 218 38 4 117 119 103 77 81 131 180 189 198 211
201 200 291 169 323 345 10 357 331 344 299 337 334 334 330 298 7 316 334 356 12 331 341 345 33 340 349 39 7 59 63 135 40 92 84 129 112 95 98 110 111 200 214 228 240
164 142 176 190 233 276 34 333 305 337 277 261 300 316 315 346 313 292 289 286 307 333 325 345 336 319 94 33 341 182 35 75 81 355 2 211 69 118 115 100 108 166 220 235 244
Height
1525 1522 1519 1517 1515 1511 1508 1504 1501 1497 1493 1490 1486 1483 1480 1477 1473 1470 1468 1469 1466 1464 1464 1466 1469 1470 1471 1473 1475 1477 1467 1459 1454 1448 1448 1445 1453 1457 1456 1458 1461 1465 1468 1470 1473
1524 1522 1519 1516 1512 1509 1507 1503 1499 1494 1491 1487 1483 1480 1476 1473 1469 1464 1465 1461 1459 1458 1462 1464 1463 1465 1466 1465 1468 1469 1462 1452 1448 1447 1449 1447 1453 1455 1460 1457 1461 1465 1467 1469 1473
1525 1522 1518 1515 1512 1508 1504 1500 1496 1491 1487 1482 1479 1476 1473 1472 1470 1460 1457 1458 1458 1457 1458 1461 1462 1461 1460 1458 1458 1459 1449 1453 1451 1452 1455 1455 1454 1454 1456 1455 1456 1460 1464 1465 1473
1524 1521 1517 1514 1510 1506 1502 1497 1493 1488 1483 1478 1474 1470 1469 1471 1466 1459 1455 1456 1457 1457 1457 1456 1459 1454 1453 1449 1451 1453 1449 1453 1451 1454 1458 1458 1456 1454 1455 1454 1454 1458 1463 1464 1470
1523 1519 1515 1511 1507 1503 1499 1493 1489 1483 1477 1473 1470 1468 1468 1468 1460 1460 1455 1454 1454 1455 1453 1452 1451 1451 1443 1445 1448 1447 1446 1446 1450 1456 1457 1457 1456 1455 1454 1456 1457 1460 1465 1465 1470
1522 1518 1514 1510 1505 1500 1496 1491 1485 1479 1474 1470 1467 1467 1467 1463 1457 1455 1453 1452 1453 1452 1451 1451 1449 1448 1442 1440 1441 1441 1443 1445 1449 1451 1454 1454 1453 1457 1453 1457 1458 1461 1466 1469 1471
1521 1517 1513 1508 1503 1497 1492 1487 1481 1474 1469 1466 1464 1464 1465 1460 1457 1454 1451 1449 1450 1449 1448 1448 1447 1449 1444 1440 1440 1439 1441 1443 1443 1448 1449 1453 1450 1452 1453 1457 1458 1461 1465 1471 1474
1520 1515 1511 1506 1501 1495 1489 1483 1477 1469 1467 1464 1461 1462 1459 1455 1453 1450 1448 1446 1447 1447 1445 1445 1446 1445 1442 1440 1436 1437 1440 1441 1437 1442 1445 1450 1446 1446 1452 1456 1457 1460 1465 1470 1475
1518 1514 1509 1504 1498 1492 1485 1480 1473 1467 1466 1461 1462 1462 1456 1453 1451 1448 1445 1443 1444 1443 1442 1441 1442 1441 1441 1438 1433 1432 1431 1435 1432 1436 1441 1448 1444 1439 1447 1453 1455 1459 1464 1469 1474
1517 1512 1508 1502 1496 1489 1483 1475 1471 1467 1466 1462 1463 1465 1457 1453 1449 1444 1440 1440 1439 1439 1439 1438 1438 1439 1438 1434 1428 1420 1427 1424 1429 1433 1439 1443 1442 1440 1447 1451 1454 1457 1463 1467 1472
1516 1511 1506 1500 1494 1488 1480 1475 1473 1470 1467 1466 1461 1460 1455 1452 1448 1441 1439 1438 1436 1434 1431 1431 1434 1430 1431 1425 1422 1418 1418 1420 1416 1425 1435 1437 1439 1438 1447 1449 1451 1456 1460 1467 1472
1515 1510 1504 1499 1493 1489 1486 1482 1484 1483 1467 1460 1458 1456 1453 1451 1445 1439 1439 1438 1434 1428 1425 1435 1425 1418 1420 1424 1428 1426 1423 1415 1420 1432 1433 1434 1435 1436 1445 1447 1449 1452 1459 1466 1473
1514 1509 1503 1498 1493 1491 1487 1486 1482 1479 1476 1457 1455 1454 1453 1450 1443 1440 1439 1436 1433 1428 1422 1423 1415 1417 1417 1424 1433 1432 1420 1415 1434 1433 1434 1436 1438 1439 1439 1445 1452 1454 1456 1464 1470
1513 1507 1503 1497 1495 1491 1489 1483 1478 1476 1473 1454 1454 1452 1451 1445 1441 1439 1438 1439 1435 1426 1418 1417 1421 1423 1422 1419 1423 1430 1431 1420 1426 1431 1437 1435 1438 1435 1439 1448 1449 1454 1457 1462 1467
1512 1507 1502 1496 1494 1492 1488 1482 1477 1478 1461 1458 1457 1455 1450 1446 1442 1438 1438 1436 1434 1425 1423 1413 1413 1419 1416 1411 1418 1428 1431 1429 1428 1428 1436 1439 1445 1419 1428 1439 1441 1449 1456 1462 1465
1510 1506 1502 1499 1495 1493 1485 1481 1480 1473 1459 1458 1458 1456 1449 1441 1439 1439 1438 1436 1435 1431 1422 1419 1415 1417 1416 1419 1422 1429 1433 1442 1437 1434 1444 1436 1440 1413 1427 1431 1436 1446 1456 1461 1465
1509 1504 1501 1497 1493 1489 1484 1481 1475 1469 1469 1468 1464 1458 1449 1443 1440 1438 1439 1432 1431 1424 1424 1418 1420 1422 1422 1421 1426 1429 1435 1441 1443 1443 1431 1437 1434 1426 1436 1440 1444 1446 1455 1461 1463
1507 1502 1500 1497 1494 1489 1483 1480 1477 1479 1482 1479 1470 1459 1449 1451 1443 1439 1438 1432 1433 1429 1420 1414 1428 1425 1432 1428 1425 1426 1427 1423 1422 1424 1423 1443 1437 1424 1440 1448 1452 1453 1457 1462 1465
1505 1503 1502 1498 1493 1489 1488 1488 1490 1493 1491 1485 1469 1456 1451 1452 1451 1441 1445 1442 1441 1440 1431 1421 1429 1437 1435 1433 1432 1428 1435 1433 1434 1430 1419 1424 1425 1439 1444 1448 1453 1457 1460 1463 1467
1504 1503 1503 1499 1495 1492 1491 1492 1490 1493 1494 1487 1477 1466 1460 1458 1455 1450 1448 1449 1448 1446 1444 1431 1429 1435 1439 1438 1438 1433 1428 1435 1431 1427 1418 1418 1417 1426 1440 1444 1451 1458 1462 1465 1468
1505 1505 1504 1499 1496 1496 1497 1498 1496 1495 1494 1494 1484 1477 1471 1470 1465 1458 1457 1452 1454 1447 1444 1435 1432 1437 1435 1437 1438 1440 1436 1438 1434 1433 1419 1415 1424 1446 1448 1450 1451 1459 1462 1465 1468
1506 1507 1505 1500 1502 1503 1500 1504 1503 1495 1493 1492 1489 1483 1479 1474 1468 1462 1461 1462 1460 1453 1446 1443 1438 1431 1438 1439 1441 1439 1431 1437 1424 1432 1436 1429 1435 1449 1452 1454 1455 1460 1463 1466 1470
1510 1509 1506 1502 1504 1504 1504 1502 1501 1498 1495 1493 1489 1487 1483 1475 1473 1463 1461 1464 1461 1457 1453 1450 1441 1433 1439 1442 1439 1437 1435 1437 1440 1443 1433 1427 1438 1448 1454 1456 1458 1461 1464 1468 1472
1512 1510 1509 1508 1512 1510 1508 1504 1501 1499 1496 1495 1492 1487 1485 1477 1472 1471 1465 1463 1462 1461 1457 1454 1449 1451 1437 1445 1444 1441 1440 1437 1435 1431 1436 1434 1442 1447 1452 1456 1461 1464 1468 1471 1473
1511 1513 1511 1510 1509 1511 1511 1509 1503 1501 1498 1495 1490 1491 1491 1484 1476 1472 1471 1467 1462 1462 1460 1457 1449 1452 1446 1447 1445 1445 1448 1448 1445 1439 1439 1445 1445 1452 1458 1461 1464 1467 1469 1471 1473
1511 1512 1513 1511 1512 1510 1510 1506 1504 1502 1502 1496 1495 1492 1490 1487 1487 1483 1482 1474 1472 1467 1465 1463 1451 1456 1449 1446 1449 1447 1446 1449 1452 1446 1449 1450 1453 1457 1462 1464 1466 1467 1469 1471 1472
1509 1509 1512 1512 1511 1508 1506 1507 1505 1501 1498 1499 1498 1493 1488 1488 1488 1485 1483 1481 1480 1479 1473 1468 1463 1456 1443 1450 1457 1448 1459 1455 1455 1457 1450 1448 1458 1459 1462 1464 1467 1468 1469 1470 1472